QPF
0.04 0.03 0.02 0.02 0.01 0.01 0.01 0.01 0.00 0.00 0.01 0.01 0.01 0.02 0.02 0.02 0.02 0.03 0.04 0.03 0.02 0.02 0.04 0.04 0.04 0.03 0.03 0.04 0.05 0.05 0.06 0.07 0.07 0.08 0.06 0.06 0.06 0.06 0.08 0.08 0.08 0.07 0.07 0.09 0.09 0.09 0.09 0.08 0.07
0.02 0.02 0.02 0.01 0.01 0.01 0.01 0.00 0.00 0.00 0.00 0.01 0.01 0.01 0.01 0.01 0.01 0.02 0.02 0.02 0.01 0.02 0.04 0.04 0.03 0.03 0.03 0.04 0.03 0.04 0.06 0.06 0.05 0.06 0.06 0.06 0.07 0.06 0.07 0.09 0.08 0.08 0.09 0.10 0.09 0.11 0.09 0.08 0.07
0.02 0.03 0.02 0.01 0.01 0.00 0.00 0.00 0.00 0.01 0.01 0.00 0.00 0.01 0.01 0.01 0.01 0.01 0.01 0.01 0.01 0.01 0.02 0.03 0.04 0.03 0.03 0.04 0.04 0.05 0.05 0.07 0.07 0.08 0.07 0.08 0.07 0.07 0.08 0.08 0.08 0.09 0.12 0.09 0.10 0.12 0.09 0.08 0.09
0.03 0.03 0.02 0.01 0.00 0.00 0.00 0.00 0.00 0.01 0.00 0.00 0.00 0.00 0.01 0.01 0.01 0.01 0.01 0.00 0.00 0.00 0.02 0.04 0.08 0.06 0.04 0.05 0.08 0.08 0.07 0.06 0.06 0.08 0.10 0.08 0.08 0.07 0.07 0.09 0.09 0.09 0.11 0.10 0.11 0.15 0.09 0.08 0.08
0.02 0.01 0.00 0.00 0.00 0.00 0.00 0.00 0.00 0.00 0.00 0.00 0.00 0.00 0.01 0.01 0.01 0.01 0.00 0.00 0.00 0.00 0.01 0.02 0.08 0.11 0.10 0.09 0.09 0.09 0.07 0.07 0.06 0.08 0.11 0.08 0.10 0.10 0.09 0.12 0.12 0.11 0.09 0.08 0.09 0.12 0.10 0.08 0.08
0.01 0.00 0.00 0.00 0.00 0.00 0.00 0.00 0.00 0.00 0.00 0.00 0.00 0.00 0.01 0.02 0.02 0.01 0.01 0.01 0.01 0.01 0.00 0.01 0.05 0.07 0.08 0.10 0.10 0.08 0.08 0.08 0.07 0.08 0.10 0.12 0.20 0.15 0.10 0.10 0.11 0.12 0.11 0.09 0.08 0.08 0.09 0.08 0.09
0.01 0.01 0.00 0.00 0.00 0.00 0.00 0.00 0.01 0.01 0.00 0.00 0.00 0.00 0.01 0.01 0.02 0.01 0.01 0.01 0.01 0.01 0.01 0.01 0.02 0.02 0.03 0.06 0.09 0.07 0.06 0.06 0.07 0.09 0.09 0.16 0.23 0.19 0.11 0.10 0.09 0.08 0.08 0.07 0.05 0.06 0.07 0.06 0.07
0.01 0.01 0.01 0.01 0.00 0.00 0.00 0.00 0.01 0.00 0.00 0.00 0.00 0.00 0.00 0.00 0.01 0.00 0.00 0.00 0.00 0.00 0.01 0.01 0.01 0.01 0.01 0.02 0.06 0.08 0.09 0.07 0.06 0.05 0.07 0.14 0.19 0.18 0.13 0.10 0.07 0.06 0.06 0.06 0.05 0.06 0.07 0.05 0.06
0.02 0.01 0.01 0.01 0.00 0.00 0.00 0.00 0.00 0.00 0.00 0.00 0.00 0.00 0.00 0.00 0.00 0.00 0.00 0.00 0.00 0.01 0.00 0.00 0.00 0.01 0.00 0.00 0.02 0.04 0.06 0.06 0.05 0.04 0.04 0.09 0.12 0.14 0.13 0.09 0.07 0.06 0.05 0.06 0.07 0.07 0.06 0.05 0.04
0.01 0.01 0.00 0.00 0.00 0.00 0.00 0.00 0.00 0.00 0.00 0.00 0.00 0.00 0.00 0.00 0.00 0.00 0.00 0.00 0.00 0.01 0.01 0.01 0.00 0.00 0.01 0.01 0.01 0.02 0.02 0.01 0.01 0.01 0.01 0.02 0.05 0.08 0.10 0.10 0.08 0.06 0.06 0.06 0.07 0.06 0.04 0.02 0.01
0.01 0.01 0.01 0.00 0.00 0.00 0.00 0.00 0.00 0.00 0.00 0.00 0.00 0.00 0.00 0.00 0.00 0.00 0.00 0.00 0.00 0.00 0.00 0.01 0.01 0.01 0.02 0.01 0.01 0.00 0.00 0.00 0.00 0.00 0.00 0.00 0.02 0.04 0.06 0.07 0.06 0.05 0.05 0.05 0.04 0.02 0.02 0.01 0.01
0.00 0.00 0.01 0.01 0.00 0.00 0.00 0.00 0.00 0.00 0.00 0.00 0.00 0.00 0.00 0.00 0.00 0.00 0.00 0.00 0.00 0.00 0.00 0.00 0.01 0.01 0.02 0.01 0.01 0.00 0.00 0.00 0.00 0.00 0.00 0.00 0.02 0.03 0.04 0.05 0.04 0.03 0.03 0.03 0.02 0.02 0.03 0.02 0.01
0.00 0.00 0.00 0.00 0.00 0.00 0.00 0.00 0.00 0.00 0.00 0.00 0.00 0.00 0.00 0.00 0.00 0.00 0.00 0.00 0.00 0.00 0.00 0.00 0.00 0.00 0.01 0.01 0.00 0.00 0.00 0.00 0.00 0.00 0.00 0.00 0.01 0.02 0.03 0.03 0.03 0.02 0.02 0.02 0.01 0.01 0.01 0.01 0.01
0.00 0.00 0.00 0.01 0.00 0.00 0.00 0.00 0.00 0.00 0.00 0.00 0.00 0.00 0.00 0.00 0.00 0.00 0.00 0.00 0.00 0.00 0.00 0.00 0.00 0.00 0.00 0.00 0.00 0.00 0.00 0.00 0.00 0.00 0.00 0.00 0.01 0.01 0.02 0.02 0.02 0.01 0.01 0.01 0.00 0.00 0.01 0.00 0.00
0.00 0.00 0.00 0.01 0.01 0.01 0.00 0.00 0.00 0.00 0.00 0.00 0.00 0.00 0.00 0.00 0.00 0.00 0.00 0.00 0.00 0.00 0.00 0.00 0.00 0.00 0.00 0.00 0.00 0.00 0.00 0.01 0.01 0.00 0.00 0.00 0.01 0.01 0.01 0.01 0.01 0.01 0.01 0.01 0.01 0.00 0.00 0.00 0.00
0.02 0.01 0.01 0.00 0.01 0.01 0.01 0.00 0.00 0.00 0.00 0.00 0.00 0.00 0.00 0.00 0.00 0.00 0.00 0.00 0.00 0.00 0.00 0.00 0.01 0.01 0.00 0.01 0.01 0.01 0.01 0.01 0.01 0.01 0.01 0.00 0.00 0.00 0.01 0.01 0.01 0.01 0.01 0.01 0.01 0.00 0.00 0.00 0.00
0.01 0.01 0.01 0.00 0.00 0.01 0.01 0.00 0.00 0.00 0.00 0.00 0.00 0.00 0.00 0.00 0.00 0.00 0.00 0.00 0.00 0.00 0.00 0.00 0.01 0.01 0.00 0.00 0.01 0.01 0.01 0.01 0.01 0.01 0.01 0.01 0.00 0.01 0.01 0.02 0.01 0.01 0.01 0.01 0.01 0.01 0.01 0.00 0.00
0.00 0.00 0.00 0.00 0.01 0.01 0.01 0.01 0.01 0.01 0.00 0.00 0.00 0.00 0.00 0.00 0.00 0.00 0.00 0.00 0.00 0.00 0.00 0.00 0.00 0.00 0.00 0.00 0.01 0.01 0.01 0.01 0.01 0.01 0.01 0.01 0.01 0.01 0.01 0.01 0.01 0.00 0.01 0.01 0.01 0.01 0.02 0.01 0.01
0.00 0.01 0.01 0.00 0.01 0.01 0.02 0.01 0.01 0.01 0.01 0.00 0.00 0.00 0.00 0.00 0.00 0.00 0.00 0.00 0.00 0.00 0.00 0.00 0.00 0.00 0.00 0.00 0.00 0.01 0.01 0.01 0.01 0.01 0.01 0.01 0.01 0.01 0.01 0.01 0.01 0.00 0.01 0.02 0.01 0.01 0.01 0.01 0.01
0.00 0.01 0.01 0.01 0.01 0.01 0.02 0.02 0.01 0.01 0.01 0.01 0.00 0.00 0.00 0.00 0.00 0.00 0.00 0.00 0.00 0.01 0.00 0.00 0.00 0.00 0.01 0.01 0.01 0.01 0.01 0.02 0.02 0.02 0.01 0.01 0.01 0.01 0.01 0.01 0.01 0.01 0.02 0.02 0.01 0.01 0.01 0.01 0.01
0.01 0.01 0.01 0.01 0.01 0.01 0.01 0.01 0.02 0.02 0.01 0.01 0.00 0.00 0.00 0.00 0.00 0.00 0.00 0.00 0.01 0.01 0.00 0.01 0.01 0.01 0.01 0.02 0.02 0.03 0.03 0.03 0.02 0.02 0.02 0.02 0.01 0.01 0.01 0.01 0.01 0.01 0.02 0.02 0.01 0.01 0.02 0.02 0.02
0.01 0.01 0.01 0.01 0.01 0.01 0.01 0.01 0.01 0.02 0.03 0.02 0.01 0.01 0.01 0.01 0.01 0.01 0.00 0.00 0.01 0.01 0.01 0.01 0.01 0.02 0.02 0.02 0.02 0.03 0.03 0.03 0.02 0.02 0.03 0.02 0.02 0.02 0.02 0.02 0.02 0.03 0.02 0.02 0.02 0.01 0.01 0.02 0.02
0.01 0.01 0.02 0.02 0.02 0.01 0.01 0.01 0.00 0.01 0.02 0.03 0.01 0.01 0.01 0.01 0.01 0.01 0.00 0.00 0.01 0.01 0.01 0.01 0.02 0.03 0.05 0.06 0.04 0.03 0.03 0.02 0.02 0.02 0.02 0.02 0.01 0.02 0.03 0.03 0.03 0.04 0.03 0.02 0.03 0.03 0.02 0.01 0.01
0.00 0.01 0.02 0.02 0.02 0.01 0.01 0.01 0.01 0.00 0.01 0.02 0.02 0.01 0.01 0.01 0.01 0.01 0.01 0.00 0.01 0.02 0.02 0.03 0.04 0.04 0.05 0.05 0.04 0.02 0.02 0.02 0.02 0.02 0.01 0.02 0.02 0.02 0.02 0.04 0.04 0.04 0.03 0.03 0.04 0.04 0.03 0.03 0.02
0.01 0.01 0.01 0.02 0.02 0.01 0.00 0.00 0.01 0.00 0.01 0.01 0.01 0.01 0.01 0.01 0.01 0.01 0.01 0.01 0.01 0.01 0.01 0.01 0.01 0.02 0.03 0.03 0.03 0.03 0.02 0.02 0.02 0.02 0.02 0.02 0.02 0.02 0.02 0.04 0.05 0.04 0.04 0.03 0.03 0.04 0.04 0.03 0.03
0.00 0.01 0.01 0.01 0.02 0.02 0.01 0.01 0.01 0.00 0.00 0.01 0.01 0.01 0.01 0.01 0.01 0.01 0.01 0.01 0.01 0.01 0.01 0.02 0.02 0.02 0.01 0.01 0.01 0.02 0.02 0.02 0.01 0.01 0.02 0.03 0.03 0.02 0.03 0.03 0.04 0.04 0.04 0.04 0.03 0.03 0.04 0.04 0.03
0.00 0.01 0.01 0.01 0.01 0.01 0.01 0.01 0.01 0.00 0.00 0.00 0.00 0.01 0.01 0.01 0.01 0.01 0.01 0.01 0.01 0.01 0.02 0.02 0.02 0.02 0.02 0.02 0.02 0.02 0.02 0.02 0.02 0.02 0.03 0.03 0.03 0.03 0.03 0.03 0.03 0.04 0.03 0.04 0.04 0.05 0.04 0.03 0.03
0.00 0.01 0.01 0.01 0.01 0.00 0.00 0.00 0.00 0.00 0.00 0.00 0.00 0.01 0.01 0.01 0.01 0.00 0.01 0.01 0.02 0.02 0.02 0.02 0.02 0.01 0.01 0.01 0.02 0.02 0.02 0.02 0.01 0.01 0.02 0.03 0.03 0.03 0.02 0.02 0.02 0.03 0.03 0.03 0.03 0.03 0.03 0.03 0.02
0.00 0.01 0.01 0.01 0.01 0.01 0.00 0.00 0.00 0.00 0.01 0.00 0.01 0.01 0.01 0.00 0.00 0.01 0.01 0.01 0.02 0.02 0.03 0.02 0.02 0.01 0.01 0.01 0.01 0.01 0.01 0.01 0.01 0.01 0.02 0.03 0.02 0.02 0.02 0.01 0.02 0.02 0.02 0.02 0.02 0.02 0.02 0.02 0.03
0.01 0.01 0.01 0.01 0.01 0.01 0.00 0.01 0.01 0.01 0.01 0.01 0.01 0.01 0.01 0.01 0.01 0.01 0.01 0.02 0.02 0.02 0.03 0.04 0.03 0.02 0.02 0.01 0.01 0.01 0.01 0.01 0.01 0.02 0.02 0.03 0.02 0.02 0.02 0.01 0.02 0.02 0.03 0.02 0.02 0.02 0.02 0.02 0.02
MSLP
1009.10 1010.24 1011.64 1013.11 1014.49 1015.60 1016.34 1016.67 1016.64 1016.33 1015.87 1015.40 1014.99 1014.68 1014.45 1014.25 1014.02 1013.70 1013.28 1012.77 1012.24 1011.75 1011.37 1011.14 1011.08 1011.15 1011.28 1011.42 1011.50 1011.49 1011.39 1011.23 1011.06 1010.93 1010.87 1010.91 1011.02 1011.18 1011.36 1011.52 1011.64 1011.71 1011.74 1011.76 1011.78 1011.83 1011.91 1012.03 1012.17
1009.75 1011.09 1012.60 1014.07 1015.34 1016.26 1016.74 1016.78 1016.45 1015.88 1015.22 1014.60 1014.10 1013.75 1013.53 1013.37 1013.19 1012.95 1012.63 1012.23 1011.81 1011.44 1011.18 1011.05 1011.07 1011.18 1011.34 1011.47 1011.54 1011.52 1011.41 1011.26 1011.10 1010.99 1010.94 1010.98 1011.07 1011.20 1011.34 1011.45 1011.52 1011.56 1011.58 1011.61 1011.66 1011.73 1011.85 1011.99 1012.15
1010.57 1012.03 1013.56 1014.96 1016.06 1016.73 1016.94 1016.70 1016.12 1015.35 1014.55 1013.83 1013.29 1012.94 1012.73 1012.59 1012.47 1012.29 1012.03 1011.73 1011.42 1011.16 1011.00 1010.98 1011.07 1011.23 1011.40 1011.54 1011.60 1011.57 1011.45 1011.30 1011.14 1011.03 1010.97 1010.98 1011.04 1011.11 1011.18 1011.23 1011.26 1011.28 1011.31 1011.36 1011.46 1011.59 1011.76 1011.95 1012.14
1011.48 1012.99 1014.46 1015.72 1016.60 1017.02 1016.96 1016.49 1015.73 1014.83 1013.96 1013.22 1012.68 1012.35 1012.16 1012.05 1011.94 1011.79 1011.58 1011.34 1011.12 1010.96 1010.90 1010.96 1011.11 1011.31 1011.50 1011.63 1011.67 1011.62 1011.49 1011.32 1011.16 1011.03 1010.96 1010.93 1010.93 1010.95 1010.95 1010.94 1010.93 1010.94 1010.98 1011.08 1011.24 1011.44 1011.68 1011.92 1012.15
1012.42 1013.89 1015.24 1016.29 1016.94 1017.11 1016.84 1016.20 1015.33 1014.40 1013.53 1012.84 1012.35 1012.05 1011.89 1011.78 1011.68 1011.53 1011.35 1011.15 1010.98 1010.90 1010.91 1011.04 1011.23 1011.45 1011.64 1011.74 1011.75 1011.67 1011.51 1011.33 1011.16 1011.02 1010.92 1010.86 1010.81 1010.76 1010.71 1010.65 1010.61 1010.61 1010.68 1010.83 1011.05 1011.33 1011.63 1011.92 1012.19
1013.27 1014.64 1015.80 1016.63 1017.04 1017.00 1016.56 1015.83 1014.95 1014.06 1013.29 1012.69 1012.29 1012.05 1011.91 1011.81 1011.69 1011.53 1011.34 1011.16 1011.04 1011.01 1011.08 1011.24 1011.45 1011.66 1011.82 1011.88 1011.84 1011.71 1011.53 1011.33 1011.15 1011.01 1010.91 1010.82 1010.74 1010.65 1010.54 1010.44 1010.38 1010.38 1010.47 1010.66 1010.93 1011.27 1011.63 1011.96 1012.25
1013.94 1015.14 1016.08 1016.67 1016.86 1016.65 1016.12 1015.39 1014.57 1013.81 1013.18 1012.72 1012.43 1012.27 1012.16 1012.05 1011.91 1011.73 1011.54 1011.37 1011.28 1011.28 1011.39 1011.56 1011.77 1011.95 1012.05 1012.04 1011.94 1011.77 1011.56 1011.35 1011.18 1011.05 1010.96 1010.87 1010.78 1010.66 1010.52 1010.39 1010.31 1010.30 1010.40 1010.61 1010.92 1011.29 1011.68 1012.03 1012.33
1014.35 1015.35 1016.05 1016.41 1016.41 1016.09 1015.53 1014.85 1014.16 1013.57 1013.12 1012.83 1012.67 1012.59 1012.51 1012.41 1012.25 1012.06 1011.86 1011.71 1011.64 1011.67 1011.80 1011.98 1012.16 1012.29 1012.32 1012.25 1012.08 1011.86 1011.63 1011.42 1011.27 1011.17 1011.11 1011.04 1010.96 1010.84 1010.69 1010.53 1010.42 1010.40 1010.49 1010.70 1011.02 1011.39 1011.78 1012.13 1012.42
1014.49 1015.26 1015.73 1015.88 1015.73 1015.34 1014.81 1014.23 1013.71 1013.31 1013.06 1012.94 1012.90 1012.89 1012.86 1012.76 1012.60 1012.40 1012.22 1012.09 1012.05 1012.11 1012.26 1012.43 1012.58 1012.66 1012.63 1012.49 1012.27 1012.02 1011.77 1011.58 1011.45 1011.40 1011.37 1011.35 1011.28 1011.17 1011.02 1010.85 1010.73 1010.68 1010.74 1010.93 1011.22 1011.57 1011.94 1012.27 1012.54
1014.38 1014.93 1015.19 1015.17 1014.91 1014.49 1014.01 1013.56 1013.21 1013.00 1012.93 1012.97 1013.04 1013.11 1013.11 1013.03 1012.88 1012.70 1012.55 1012.45 1012.45 1012.55 1012.70 1012.88 1013.00 1013.04 1012.96 1012.77 1012.51 1012.24 1011.99 1011.82 1011.73 1011.72 1011.74 1011.75 1011.72 1011.63 1011.48 1011.31 1011.17 1011.10 1011.13 1011.27 1011.52 1011.83 1012.16 1012.46 1012.70
1014.13 1014.48 1014.56 1014.39 1014.06 1013.65 1013.23 1012.91 1012.71 1012.67 1012.75 1012.91 1013.08 1013.20 1013.24 1013.19 1013.07 1012.93 1012.80 1012.75 1012.79 1012.92 1013.09 1013.26 1013.37 1013.38 1013.27 1013.07 1012.80 1012.52 1012.29 1012.15 1012.10 1012.12 1012.18 1012.22 1012.22 1012.15 1012.02 1011.85 1011.70 1011.61 1011.61 1011.71 1011.91 1012.17 1012.45 1012.71 1012.94
1013.87 1014.05 1013.98 1013.72 1013.34 1012.94 1012.60 1012.37 1012.30 1012.38 1012.57 1012.81 1013.04 1013.21 1013.29 1013.27 1013.19 1013.08 1013.00 1012.99 1013.07 1013.21 1013.39 1013.56 1013.66 1013.67 1013.56 1013.36 1013.11 1012.86 1012.66 1012.54 1012.51 1012.56 1012.64 1012.70 1012.72 1012.67 1012.56 1012.41 1012.27 1012.17 1012.14 1012.21 1012.36 1012.58 1012.81 1013.04 1013.25
1013.73 1013.77 1013.60 1013.27 1012.87 1012.48 1012.19 1012.03 1012.04 1012.18 1012.43 1012.72 1012.99 1013.19 1013.30 1013.33 1013.29 1013.22 1013.18 1013.20 1013.29 1013.44 1013.61 1013.77 1013.87 1013.88 1013.80 1013.63 1013.42 1013.22 1013.05 1012.96 1012.95 1013.00 1013.07 1013.14 1013.17 1013.14 1013.05 1012.93 1012.81 1012.72 1012.70 1012.75 1012.87 1013.04 1013.24 1013.44 1013.63
1013.80 1013.75 1013.51 1013.14 1012.73 1012.36 1012.09 1011.96 1011.99 1012.15 1012.41 1012.71 1012.99 1013.21 1013.36 1013.43 1013.43 1013.41 1013.40 1013.43 1013.50 1013.63 1013.77 1013.91 1014.00 1014.03 1013.98 1013.87 1013.73 1013.58 1013.46 1013.39 1013.38 1013.41 1013.46 1013.51 1013.53 1013.51 1013.45 1013.38 1013.30 1013.25 1013.25 1013.30 1013.41 1013.55 1013.72 1013.89 1014.05
1014.11 1014.01 1013.72 1013.34 1012.93 1012.56 1012.29 1012.16 1012.16 1012.29 1012.52 1012.79 1013.07 1013.31 1013.50 1013.61 1013.67 1013.69 1013.69 1013.71 1013.75 1013.82 1013.91 1014.00 1014.08 1014.13 1014.12 1014.08 1014.01 1013.93 1013.85 1013.80 1013.78 1013.77 1013.79 1013.80 1013.81 1013.80 1013.77 1013.74 1013.73 1013.73 1013.77 1013.84 1013.94 1014.07 1014.20 1014.34 1014.48
1014.61 1014.48 1014.19 1013.81 1013.40 1013.03 1012.74 1012.57 1012.51 1012.57 1012.74 1012.97 1013.23 1013.49 1013.71 1013.89 1014.00 1014.06 1014.07 1014.06 1014.05 1014.05 1014.06 1014.10 1014.15 1014.20 1014.24 1014.27 1014.27 1014.26 1014.23 1014.19 1014.14 1014.10 1014.06 1014.03 1014.02 1014.01 1014.02 1014.05 1014.09 1014.16 1014.24 1014.34 1014.44 1014.55 1014.66 1014.77 1014.87
1015.19 1015.06 1014.79 1014.43 1014.05 1013.68 1013.35 1013.11 1012.97 1012.94 1013.01 1013.18 1013.42 1013.69 1013.96 1014.20 1014.38 1014.48 1014.51 1014.48 1014.40 1014.32 1014.25 1014.22 1014.23 1014.28 1014.36 1014.44 1014.52 1014.56 1014.57 1014.54 1014.47 1014.39 1014.30 1014.23 1014.19 1014.19 1014.23 1014.31 1014.41 1014.53 1014.66 1014.78 1014.88 1014.97 1015.05 1015.12 1015.19
1015.73 1015.62 1015.40 1015.10 1014.75 1014.38 1014.03 1013.71 1013.46 1013.32 1013.28 1013.37 1013.57 1013.85 1014.17 1014.48 1014.73 1014.89 1014.95 1014.90 1014.78 1014.63 1014.48 1014.38 1014.35 1014.39 1014.49 1014.62 1014.75 1014.84 1014.89 1014.86 1014.78 1014.66 1014.53 1014.42 1014.36 1014.36 1014.42 1014.54 1014.69 1014.86 1015.01 1015.14 1015.24 1015.31 1015.36 1015.39 1015.43
1016.11 1016.06 1015.91 1015.69 1015.41 1015.06 1014.69 1014.30 1013.94 1013.66 1013.51 1013.50 1013.64 1013.91 1014.26 1014.64 1014.97 1015.20 1015.31 1015.28 1015.14 1014.95 1014.74 1014.58 1014.51 1014.53 1014.63 1014.79 1014.96 1015.10 1015.16 1015.15 1015.05 1014.91 1014.75 1014.62 1014.54 1014.54 1014.62 1014.76 1014.94 1015.13 1015.30 1015.43 1015.51 1015.56 1015.57 1015.58 1015.59
1016.28 1016.30 1016.27 1016.17 1015.99 1015.70 1015.31 1014.86 1014.39 1013.97 1013.68 1013.54 1013.60 1013.84 1014.21 1014.63 1015.04 1015.36 1015.53 1015.55 1015.43 1015.22 1014.99 1014.80 1014.69 1014.70 1014.80 1014.97 1015.16 1015.31 1015.40 1015.38 1015.29 1015.13 1014.96 1014.81 1014.73 1014.73 1014.82 1014.97 1015.16 1015.35 1015.51 1015.62 1015.69 1015.71 1015.70 1015.70 1015.70
1016.23 1016.38 1016.50 1016.56 1016.50 1016.29 1015.92 1015.42 1014.85 1014.29 1013.83 1013.55 1013.49 1013.65 1014.00 1014.45 1014.92 1015.32 1015.57 1015.66 1015.60 1015.42 1015.20 1015.00 1014.89 1014.88 1014.97 1015.14 1015.33 1015.49 1015.57 1015.57 1015.48 1015.32 1015.15 1015.00 1014.92 1014.92 1015.01 1015.15 1015.33 1015.50 1015.64 1015.73 1015.78 1015.78 1015.77 1015.76 1015.77
1016.05 1016.35 1016.66 1016.90 1017.00 1016.91 1016.58 1016.05 1015.38 1014.68 1014.04 1013.59 1013.38 1013.43 1013.70 1014.14 1014.64 1015.09 1015.43 1015.61 1015.63 1015.52 1015.34 1015.17 1015.06 1015.05 1015.13 1015.28 1015.46 1015.61 1015.69 1015.69 1015.61 1015.47 1015.31 1015.17 1015.10 1015.09 1015.17 1015.29 1015.44 1015.59 1015.70 1015.76 1015.79 1015.79 1015.79 1015.80 1015.83
1015.85 1016.32 1016.83 1017.29 1017.57 1017.60 1017.34 1016.80 1016.06 1015.21 1014.40 1013.75 1013.36 1013.25 1013.41 1013.78 1014.26 1014.75 1015.15 1015.42 1015.53 1015.51 1015.41 1015.29 1015.21 1015.20 1015.27 1015.40 1015.56 1015.69 1015.77 1015.77 1015.70 1015.57 1015.43 1015.32 1015.24 1015.24 1015.29 1015.39 1015.50 1015.60 1015.68 1015.72 1015.74 1015.75 1015.77 1015.82 1015.90
1015.74 1016.39 1017.11 1017.76 1018.23 1018.41 1018.23 1017.70 1016.90 1015.93 1014.96 1014.11 1013.51 1013.21 1013.22 1013.47 1013.89 1014.37 1014.81 1015.15 1015.35 1015.42 1015.40 1015.35 1015.31 1015.32 1015.39 1015.50 1015.63 1015.74 1015.81 1015.81 1015.75 1015.65 1015.53 1015.43 1015.37 1015.35 1015.38 1015.44 1015.50 1015.57 1015.61 1015.64 1015.66 1015.69 1015.75 1015.84 1015.97
1015.79 1016.61 1017.51 1018.35 1018.99 1019.30 1019.21 1018.71 1017.88 1016.83 1015.71 1014.69 1013.90 1013.40 1013.21 1013.32 1013.63 1014.06 1014.49 1014.86 1015.13 1015.29 1015.35 1015.37 1015.38 1015.41 1015.48 1015.58 1015.69 1015.78 1015.84 1015.85 1015.81 1015.73 1015.63 1015.55 1015.48 1015.45 1015.44 1015.46 1015.48 1015.50 1015.52 1015.54 1015.57 1015.64 1015.74 1015.88 1016.06
1016.02 1016.96 1018.01 1019.00 1019.77 1020.21 1020.21 1019.77 1018.94 1017.84 1016.63 1015.48 1014.51 1013.82 1013.45 1013.38 1013.56 1013.88 1014.27 1014.64 1014.94 1015.15 1015.29 1015.37 1015.43 1015.49 1015.56 1015.66 1015.75 1015.84 1015.90 1015.91 1015.89 1015.83 1015.76 1015.68 1015.62 1015.56 1015.52 1015.49 1015.46 1015.44 1015.44 1015.46 1015.51 1015.62 1015.77 1015.96 1016.17
1016.39 1017.41 1018.54 1019.62 1020.49 1021.02 1021.11 1020.73 1019.95 1018.87 1017.63 1016.40 1015.31 1014.47 1013.93 1013.69 1013.71 1013.91 1014.21 1014.54 1014.83 1015.07 1015.25 1015.37 1015.47 1015.55 1015.64 1015.74 1015.84 1015.92 1015.99 1016.02 1016.02 1015.99 1015.94 1015.87 1015.80 1015.72 1015.64 1015.56 1015.49 1015.43 1015.41 1015.44 1015.52 1015.66 1015.85 1016.09 1016.33
1016.82 1017.86 1019.02 1020.13 1021.04 1021.62 1021.79 1021.51 1020.81 1019.79 1018.59 1017.36 1016.23 1015.30 1014.63 1014.24 1014.11 1014.18 1014.36 1014.61 1014.86 1015.08 1015.26 1015.40 1015.52 1015.62 1015.72 1015.83 1015.93 1016.03 1016.11 1016.17 1016.20 1016.21 1016.18 1016.13 1016.05 1015.95 1015.83 1015.71 1015.60 1015.52 1015.48 1015.52 1015.62 1015.80 1016.03 1016.30 1016.57
1017.25 1018.25 1019.36 1020.44 1021.34 1021.94 1022.17 1021.98 1021.41 1020.51 1019.43 1018.27 1017.17 1016.23 1015.50 1015.00 1014.74 1014.67 1014.72 1014.86 1015.03 1015.19 1015.34 1015.47 1015.58 1015.68 1015.78 1015.89 1016.01 1016.12 1016.24 1016.34 1016.41 1016.46 1016.47 1016.44 1016.37 1016.26 1016.12 1015.97 1015.83 1015.73 1015.68 1015.72 1015.84 1016.05 1016.32 1016.62 1016.90
1017.63 1018.54 1019.55 1020.53 1021.37 1021.97 1022.23 1022.15 1021.72 1020.99 1020.08 1019.07 1018.07 1017.18 1016.44 1015.89 1015.53 1015.34 1015.26 1015.28 1015.34 1015.41 1015.49 1015.57 1015.64 1015.72 1015.81 1015.92 1016.04 1016.18 1016.33 1016.47 1016.60 1016.71 1016.77 1016.78 1016.74 1016.64 1016.50 1016.33 1016.17 1016.06 1016.01 1016.05 1016.19 1016.42 1016.71 1017.03 1017.32
Thickness
5791 5790 5786 5773 5749 5727 5724 5732 5739 5740 5741 5747 5749 5745 5738 5733 5728 5725 5746 5754 5755 5755 5756 5757 5758 5758 5758 5758 5758 5758 5758 5758 5758 5758 5758 5758 5759 5760 5760 5760 5760 5761 5761 5761 5761 5761 5761 5761 5761
5791 5788 5777 5758 5731 5713 5720 5734 5737 5742 5747 5750 5749 5745 5739 5736 5742 5743 5748 5753 5754 5754 5754 5755 5755 5756 5756 5755 5755 5754 5755 5755 5755 5755 5755 5755 5755 5756 5756 5757 5757 5758 5758 5758 5758 5757 5757 5757 5758
5790 5785 5763 5743 5726 5717 5725 5737 5740 5747 5751 5749 5744 5743 5739 5737 5743 5745 5750 5753 5752 5752 5752 5752 5752 5753 5753 5752 5752 5751 5751 5751 5751 5751 5751 5751 5751 5752 5752 5753 5754 5754 5754 5754 5754 5754 5753 5754 5754
5783 5770 5755 5735 5726 5731 5736 5741 5745 5745 5747 5748 5743 5736 5740 5746 5747 5749 5752 5752 5750 5749 5749 5749 5750 5750 5750 5749 5749 5749 5748 5748 5748 5748 5748 5748 5748 5749 5749 5750 5751 5751 5750 5750 5750 5750 5750 5750 5750
5776 5757 5737 5724 5728 5737 5743 5747 5748 5742 5741 5742 5740 5732 5734 5746 5751 5751 5750 5750 5748 5747 5747 5747 5747 5747 5747 5747 5746 5746 5745 5745 5745 5745 5744 5745 5745 5746 5747 5747 5747 5746 5746 5746 5746 5746 5746 5745 5745
5759 5746 5723 5717 5726 5737 5744 5749 5746 5741 5740 5741 5738 5732 5733 5745 5747 5748 5748 5747 5747 5745 5745 5744 5744 5744 5743 5743 5743 5743 5742 5742 5742 5742 5742 5742 5743 5743 5743 5743 5743 5742 5742 5742 5742 5742 5741 5741 5741
5752 5736 5724 5723 5725 5733 5743 5749 5743 5739 5737 5739 5741 5730 5733 5741 5746 5747 5746 5745 5744 5743 5742 5741 5740 5740 5740 5740 5739 5739 5738 5738 5738 5738 5738 5738 5738 5739 5740 5740 5739 5739 5738 5738 5737 5737 5737 5737 5737
5758 5738 5726 5723 5725 5731 5745 5749 5747 5742 5740 5747 5744 5731 5731 5741 5746 5745 5743 5741 5741 5740 5739 5738 5738 5737 5737 5737 5736 5736 5735 5735 5735 5734 5734 5733 5733 5735 5736 5735 5735 5735 5734 5734 5734 5733 5733 5733 5732
5760 5730 5719 5725 5728 5734 5746 5745 5747 5750 5745 5744 5745 5742 5744 5746 5744 5740 5737 5736 5736 5737 5736 5736 5735 5735 5734 5734 5733 5732 5732 5731 5731 5730 5730 5729 5729 5729 5730 5730 5730 5730 5730 5730 5729 5729 5728 5728 5727
5749 5725 5730 5740 5741 5741 5745 5744 5744 5741 5737 5737 5740 5743 5746 5743 5740 5736 5732 5731 5732 5732 5734 5734 5734 5733 5732 5731 5730 5729 5728 5727 5727 5726 5726 5725 5725 5725 5725 5725 5725 5725 5725 5724 5724 5724 5723 5722 5722
5749 5736 5743 5747 5749 5748 5745 5745 5746 5737 5730 5735 5737 5739 5740 5738 5736 5734 5732 5732 5732 5732 5733 5733 5732 5731 5730 5729 5728 5726 5725 5724 5724 5723 5722 5722 5721 5721 5720 5720 5720 5720 5720 5719 5719 5718 5718 5717 5716
5747 5746 5749 5749 5753 5750 5745 5744 5741 5739 5740 5747 5746 5744 5740 5736 5734 5733 5732 5732 5732 5731 5732 5732 5731 5730 5729 5727 5726 5724 5723 5722 5721 5720 5719 5719 5718 5717 5716 5716 5715 5715 5715 5714 5713 5712 5712 5711 5711
5745 5746 5750 5752 5751 5750 5747 5742 5741 5740 5747 5748 5746 5742 5738 5736 5735 5735 5735 5734 5732 5731 5731 5731 5730 5728 5727 5725 5724 5722 5721 5719 5718 5717 5717 5716 5714 5713 5713 5712 5711 5710 5710 5709 5708 5707 5707 5706 5706
5747 5746 5746 5749 5749 5749 5742 5740 5739 5740 5746 5743 5741 5738 5737 5736 5736 5734 5733 5732 5731 5731 5730 5730 5729 5727 5725 5723 5722 5720 5719 5717 5716 5715 5714 5713 5711 5710 5709 5708 5707 5706 5706 5705 5704 5703 5702 5701 5700
5748 5739 5738 5742 5744 5744 5741 5730 5734 5742 5743 5738 5737 5735 5735 5735 5735 5734 5734 5733 5732 5731 5731 5729 5728 5726 5724 5722 5720 5719 5717 5715 5714 5712 5711 5710 5709 5708 5706 5704 5703 5702 5702 5701 5699 5698 5698 5696 5695
5738 5726 5719 5733 5739 5741 5732 5717 5734 5741 5738 5733 5733 5732 5732 5734 5735 5736 5736 5735 5734 5732 5730 5729 5728 5725 5723 5720 5719 5717 5715 5713 5711 5710 5709 5708 5706 5705 5703 5701 5700 5699 5698 5697 5695 5694 5692 5690 5689
5719 5709 5713 5724 5736 5735 5727 5719 5733 5738 5735 5731 5730 5730 5730 5731 5733 5735 5736 5735 5734 5732 5729 5727 5725 5723 5721 5719 5717 5715 5713 5711 5709 5708 5707 5706 5704 5702 5700 5698 5696 5695 5694 5692 5692 5689 5687 5685 5684
5708 5709 5712 5716 5728 5727 5720 5720 5729 5734 5732 5729 5728 5728 5728 5728 5731 5734 5735 5735 5733 5731 5728 5725 5723 5721 5718 5716 5714 5711 5710 5708 5706 5705 5704 5703 5702 5700 5698 5695 5693 5692 5690 5688 5687 5684 5683 5681 5680
5719 5713 5711 5718 5729 5723 5717 5719 5725 5731 5729 5727 5725 5725 5726 5729 5733 5734 5734 5733 5731 5728 5725 5723 5720 5718 5716 5713 5710 5707 5704 5704 5703 5702 5701 5700 5699 5697 5695 5693 5690 5688 5686 5684 5683 5681 5679 5677 5676
5718 5711 5711 5717 5726 5722 5715 5717 5725 5728 5728 5729 5727 5726 5727 5728 5729 5730 5730 5729 5727 5725 5723 5721 5718 5716 5714 5712 5709 5706 5703 5701 5700 5699 5698 5697 5695 5694 5692 5690 5687 5685 5683 5681 5680 5679 5676 5674 5673
5715 5711 5711 5712 5718 5718 5714 5709 5718 5726 5730 5731 5730 5729 5729 5729 5728 5727 5727 5726 5725 5722 5721 5720 5717 5715 5713 5710 5707 5703 5700 5698 5695 5694 5693 5693 5692 5690 5689 5687 5684 5682 5681 5678 5677 5676 5674 5671 5669
5707 5721 5719 5713 5703 5696 5704 5688 5708 5716 5720 5725 5726 5726 5727 5728 5729 5727 5726 5724 5723 5722 5721 5718 5716 5713 5710 5708 5704 5700 5695 5692 5691 5690 5689 5689 5688 5687 5685 5683 5682 5680 5678 5676 5675 5674 5672 5670 5667
5716 5721 5716 5710 5701 5691 5695 5687 5697 5709 5712 5718 5722 5724 5726 5727 5727 5726 5726 5724 5723 5721 5718 5716 5713 5710 5707 5705 5702 5698 5694 5691 5689 5687 5686 5685 5684 5683 5682 5680 5679 5677 5675 5674 5672 5671 5670 5668 5666
5720 5711 5703 5693 5686 5677 5689 5684 5688 5699 5709 5716 5721 5723 5725 5725 5725 5725 5724 5722 5720 5718 5716 5712 5709 5706 5704 5701 5698 5695 5691 5688 5685 5683 5681 5680 5679 5678 5678 5677 5675 5674 5673 5671 5670 5668 5667 5666 5664
5710 5691 5672 5670 5663 5669 5687 5683 5688 5709 5716 5718 5719 5721 5722 5722 5721 5720 5719 5717 5715 5714 5711 5709 5706 5702 5700 5697 5695 5692 5689 5686 5683 5681 5679 5677 5675 5674 5674 5673 5672 5671 5670 5669 5668 5666 5664 5663 5662
5701 5692 5669 5661 5658 5666 5680 5678 5694 5713 5718 5720 5720 5719 5719 5718 5717 5717 5716 5714 5712 5710 5708 5705 5702 5699 5697 5694 5692 5689 5687 5684 5681 5679 5677 5675 5674 5673 5672 5670 5669 5668 5667 5666 5665 5664 5662 5661 5659
5696 5687 5689 5671 5667 5661 5668 5682 5697 5709 5711 5714 5714 5714 5714 5714 5714 5713 5712 5710 5709 5707 5705 5703 5700 5697 5694 5691 5689 5686 5684 5681 5679 5677 5675 5673 5672 5671 5669 5668 5666 5665 5664 5663 5662 5660 5659 5658 5656
5703 5689 5674 5666 5655 5651 5664 5671 5677 5693 5698 5704 5706 5707 5709 5710 5709 5708 5707 5705 5704 5703 5701 5699 5697 5693 5691 5688 5685 5683 5681 5679 5676 5674 5672 5670 5669 5667 5666 5664 5663 5661 5660 5659 5658 5656 5655 5653 5652
5691 5684 5674 5662 5660 5651 5651 5664 5691 5692 5697 5698 5701 5703 5704 5704 5703 5703 5702 5701 5699 5697 5696 5693 5691 5689 5686 5684 5682 5679 5677 5675 5673 5671 5669 5667 5666 5664 5662 5661 5659 5658 5656 5655 5653 5652 5650 5649 5648
5695 5687 5673 5664 5658 5652 5650 5662 5696 5693 5696 5696 5696 5698 5700 5699 5699 5698 5697 5695 5693 5691 5689 5688 5686 5684 5682 5680 5677 5675 5674 5671 5669 5667 5665 5664 5662 5661 5659 5657 5655 5654 5653 5651 5649 5647 5646 5644 5643